RADUGA-1 1 [-]

Last updated on Jan. 28, 2020, 4:41 a.m. UTC

1 20083U 89048A   20027.21090985 -.00000233  00000-0  00000-0 0  9996
2 20083  14.9868 353.2049 0019282  78.7692  97.1473  0.98710023108244
UTC
Height (km)
Latitude
Longitude
Inclination
Orbital Period
UTC large
Height (km)
Speed (km/s)
/
Latitude / Longitude
Inclination (degrees)
Orbital Period (minutes)
Azimuth
Elevation
Range (km)
Doppler Factor
iOS Compass Heading
iOS Angle

Next 30 passes for location: Hong Kong

Rise time Rise Azimuth (degrees) Set time Set Azimuth (degrees) Duration Max altitude (degrees)

No matching passes for this satellites